Startseite
Über Mich
AHP4
Galerie
Sehschlangen
Tourenbuch
Bookmarks
Elektronik
Bewertung
Geschichten
[Tagesmessung] [Jahreswerte] [Information]

Messwerte vom 12.03.2022

Die letzten Messwerte von 23:58:48 Uhr:
KategorieMesswert
Temperatur [°C]1
Luftdruck [mBar]1005
Sonneneinstrahlung0
Wind [km/h]1 aus Nordost
Niederschlag [l/m²]0
rel.Luftfeucht.46.2%
CO2 [ppm]622

Diagramme
Messwerte vom 12.03.2022
Tagesaggregation
KategorieMinimumMaximumSchnittSumme
Temperatur [°C]-2164.3479
Luftdruck [mBar]100410071005.6708
Sonneneinstrahlung246102.5625
Wind [km/h]23
rF [%]1949.536.39
Niederschlag [l/m²]0
CO2 [ppm]390644482.1
Einordnung alsFrosttag
Vegetationstag

Messungen an benachbarten Tagen: Zur Jahresaggregation 2022
Tabelle aller Messwerte
UhrzeitTemperatur [°C]Luftdruck [mBar]SonneWind [km/h]RichtungRegen [l/m²]rF [%]CO2 [ppm]
00:01:46 2 1006 0 6 N 0 42.9 468
00:04:47 2 1006 0 3 W 0 42.8 465
00:07:48 2 1006 0 8 S 0 42.8 466
00:10:46 2 1006 0 2 O 0 42.9 468
00:13:46 2 1006 0 4 W 0 43.1 469
00:16:46 1 1006 0 5 SO 0 43.2 466
00:19:45 1 1006 0 6 W 0 43.2 474
00:22:47 1 1006 0 9 SO 0 43.3 478
00:25:48 1 1006 0 7 SO 0 43.2 477
00:28:47 1 1006 0 3 SO 0 43.3 475
00:31:44 1 1006 0 4 O 0 43.6 474
00:34:46 1 1006 0 2 N 0 43.5 480
00:37:48 1 1006 0 5 NO 0 43.3 477
00:40:47 1 1006 0 6 SO 0 43.6 485
00:43:46 1 1006 0 4 NW 0 43.9 489
00:46:47 1 1006 0 6 NO 0 44 498
00:49:45 1 1006 0 4 NW 0 44.2 500
00:52:46 1 1006 0 5 NO 0 44.5 492
00:55:47 1 1006 0 2 NW 0 44.4 497
00:58:47 1 1006 0 5 O 0 44.6 495
01:01:45 1 1006 0 4 S 0 44.4 494
01:04:46 1 1006 0 8 SO 0 44.4 498
01:07:45 1 1006 0 0 N 0 44.7 497
01:10:45 1 1006 0 7 0 44.9 501
01:13:47 1 1006 0 1 SO 0 44.9 503
01:16:45 1 1006 0 4 O 0 45 501
01:19:46 1 1006 0 9 N 0 45 515
01:22:47 1 1006 0 3 NO 0 45.3 517
01:25:47 0 1006 0 1 NW 0 45.3 516
01:28:48 0 1006 0 2 O 0 45.3 512
01:31:46 0 1006 0 5 SO 0 45.4 513
01:34:46 0 1006 0 5 SO 0 45.3 519
01:37:44 0 1006 0 4 O 0 45.3 524
01:40:47 0 1006 0 2 SW 0 45.5 515
01:43:47 0 1006 0 2 SO 0 45.2 515
01:46:45 0 1006 0 2 N 0 45.1 524
01:49:46 0 1006 0 3 N 0 45.2 518
01:52:46 0 1006 0 2 O 0 45.3 527
01:55:46 0 1006 0 4 SO 0 45.3 523
01:58:46 0 1006 0 7 S 0 45.1 532
02:01:48 0 1006 0 0 NO 0 45.2 527
02:04:48 0 1006 0 2 SO 0 45.7 524
02:07:46 0 1006 0 2 S 0 46 521
02:10:48 0 1006 0 0 W 0 46.2 521
02:13:47 0 1006 0 7 SO 0 46.8 518
02:16:46 0 1006 0 6 NO 0 46.8 521
02:19:47 0 1006 0 2 W 0 46.8 524
02:22:47 0 1006 0 3 N 0 46.9 515
02:25:47 0 1006 0 2 N 0 46.7 521
02:28:46 0 1006 0 2 S 0 46.2 524
02:31:46 0 1006 0 7 S 0 45.7 535
02:34:44 0 1006 0 3 S 0 45.4 526
02:37:48 0 1006 0 0 NW 0 45.5 521
02:40:46 0 1006 0 6 S 0 45.6 521
02:43:48 -1 1006 0 3 NO 0 46.2 518
02:46:48 -1 1006 0 5 N 0 46.8 525
02:49:46 0 1006 0 4 NO 0 46.9 524
02:52:47 -1 1006 0 7 NO 0 46.9 529
02:55:45 -1 1006 0 1 N 0 46.9 530
02:58:47 0 1006 0 0 S 0 46.7 538
03:01:48 0 1006 0 3 NO 0 46.3 532
03:04:46 0 1006 0 3 NO 0 46.2 533
03:07:46 0 1006 0 2 N 0 46.2 545
03:10:45 0 1006 0 7 N 0 46.1 548
03:13:49 0 1006 0 5 SW 0 45.8 550
03:16:47 0 1006 0 1 NO 0 46 545
03:19:46 0 1006 0 1 NO 0 46.1 552
03:22:46 0 1006 0 7 N 0 45.9 542
03:25:46 0 1006 0 1 W 0 45.9 539
03:28:45 0 1006 0 4 N 0 45.6 536
03:31:48 -1 1006 0 2 NO 0 45.9 545
03:34:49 -1 1006 0 3 NO 0 46.2 543
03:37:46 -1 1006 0 5 O 0 46.4 545
03:40:46 -1 1006 0 2 S 0 46.2 556
03:43:49 -1 1006 0 5 SO 0 46.2 556
03:46:45 -1 1006 0 3 NO 0 46.3 550
03:49:46 -1 1006 0 3 O 0 46.3 544
03:52:47 -1 1006 0 1 N 0 46.7 547
03:55:48 -1 1006 0 4 SO 0 46.8 553
03:58:45 -1 1006 0 4 O 0 46.8 556
04:01:47 -1 1006 0 1 O 0 47 557
04:04:47 -1 1006 0 2 N 0 47.1 556
04:07:46 -1 1006 0 4 S 0 47.2 561
04:10:48 -1 1006 0 0 SO 0 47.4 560
04:13:47 -1 1006 0 5 SO 0 47.6 545
04:16:48 -1 1006 0 2 NW 0 47.7 544
04:19:46 -1 1005 0 9 NO 0 47.6 547
04:22:48 -1 1006 0 2 O 0 47.8 556
04:25:46 -1 1006 0 0 W 0 47.7 563
04:28:47 -1 1006 0 1 S 0 47.7 556
04:31:51 -1 1006 0 2 N 0 47.8 556
04:34:46 -1 1006 0 1 S 0 47.9 548
04:37:50 -1 1006 0 0 O 0 48.2 551
04:40:47 -1 1005 0 1 NO 0 48.2 551
04:43:49 -1 1006 0 5 NO 0 48.3 558
04:46:46 -1 1005 0 0 SW 0 48.1 544
04:49:46 -1 1005 0 1 NO 0 48 542
04:52:43 -1 1005 0 1 S 0 48.4 544
04:55:47 -2 1006 0 3 NO 0 48.6 559
04:58:46 -2 1006 0 3 O 0 48.8 555
05:01:46 -2 1006 0 2 N 0 48.9 548
05:04:49 -2 1005 0 5 SO 0 49 545
05:07:48 -2 1006 0 1 SO 0 49 551
05:10:46 -1 1006 0 1 NO 0 48.9 547
05:13:48 -2 1006 0 3 SW 0 48.8 547
05:16:46 -2 1006 0 0 NO 0 48.9 551
05:19:49 -2 1006 0 3 SO 0 48.9 559
05:22:45 -1 1006 0 2 S 0 48.9 562
05:25:49 -1 1006 0 2 W 0 49 559
05:28:47 -2 1006 0 3 O 0 48.9 553
05:31:48 -2 1006 0 3 NO 0 48.7 547
05:34:49 -2 1006 0 2 NW 0 48.8 545
05:37:48 -2 1006 0 2 NO 0 49.1 542
05:40:47 -2 1006 0 0 N 0 49.1 545
05:43:45 -2 1005 0 4 N 0 49.3 541
05:46:47 -2 1005 0 1 N 0 49.5 541
05:49:44 -2 1006 0 1 S 0 49.4 544
05:52:48 -2 1006 0 1 NO 0 49.2 551
05:55:45 -2 1006 0 0 O 0 49 545
05:58:46 -2 1006 0 1 O 0 49 538
06:01:46 -2 1006 0 2 O 0 49 542
06:04:50 -2 1006 0 0 NW 0 49.2 545
06:07:48 -2 1006 0 0 NO 0 49.3 550
06:10:48 -2 1006 0 9 SO 0 49.1 553
06:13:49 -2 1006 3 2 SW 0 48.7 553
06:16:47 -2 1006 5 3 NO 0 48.3 544
06:19:46 -2 1006 9 1 SO 0 48.1 530
06:22:47 -2 1006 14 2 NO 0 48.1 524
06:25:46 -2 1006 21 8 O 0 48.1 504
06:28:49 -2 1006 31 1 NO 0 47.9 538
06:31:49 -2 1006 43 3 SW 0 47.7 536
06:34:46 -2 1006 56 3 S 0 47.8 534
06:37:47 -2 1006 70 7 S 0 47.7 551
06:40:46 -1 1006 84 2 S 0 47.5 553
06:43:46 -2 1006 96 5 O 0 47.3 564
06:46:50 -2 1006 108 1 N 0 47.5 568
06:49:46 -2 1006 118 3 O 0 47.5 580
06:52:47 -2 1006 128 2 NO 0 47.5 576
06:55:47 -2 1006 136 1 O 0 47.7 574
06:58:47 -2 1006 143 3 NO 0 47.9 576
07:01:46 -2 1006 149 1 O 0 48 582
07:04:46 -2 1006 154 1 NW 0 47.7 579
07:07:48 -1 1006 159 3 SO 0 47.7 562
07:10:47 -1 1006 163 0 N 0 47.7 559
07:13:47 -1 1006 166 3 NO 0 47.6 561
07:16:45 -1 1006 169 2 O 0 47.3 568
07:19:47 -1 1006 171 2 O 0 47.2 567
07:22:47 -1 1006 173 7 O 0 46.9 565
07:25:50 -1 1006 175 1 0 46.6 567
07:28:48 -1 1006 177 2 N 0 46.7 556
07:31:46 -1 1006 179 1 NO 0 46.8 548
07:34:45 -1 1006 180 0 0 46.2 545
07:37:47 -1 1006 181 0 NO 0 46.2 544
07:40:50 -1 1006 183 1 SO 0 46.2 542
07:43:50 -1 1006 184 0 NW 0 46.2 545
07:46:47 -1 1006 185 2 N 0 46.4 533
07:49:47 -1 1006 186 0 NO 0 46.7 539
07:52:49 -1 1006 187 8 SO 0 46.9 533
07:55:50 0 1006 188 0 N 0 46.7 534
07:58:46 0 1006 189 2 S 0 46.1 528
08:01:47 0 1006 190 3 S 0 45.4 527
08:04:47 0 1006 191 5 N 0 44.9 522
08:07:49 0 1006 191 3 N 0 43.9 518
08:10:51 1 1006 192 8 SO 0 43 515
08:13:48 1 1006 193 3 SO 0 42.1 513
08:16:48 1 1006 194 8 N 0 41.4 513
08:19:48 1 1006 195 6 SO 0 40.8 510
08:22:46 1 1006 195 2 NO 0 40.1 503
08:25:48 1 1006 196 9 N 0 39.9 496
08:28:48 2 1006 196 2 N 0 39.1 497
08:31:49 2 1006 197 3 O 0 38.8 492
08:34:50 2 1006 197 2 NW 0 38.5 489
08:37:51 2 1006 198 6 NW 0 38.3 486
08:40:49 2 1006 198 6 SO 0 38.1 483
08:43:49 2 1006 199 6 SW 0 37.9 480
08:46:48 2 1006 199 6 NO 0 37.7 475
08:49:49 2 1006 200 5 SW 0 37.2 471
08:52:49 2 1006 201 5 SW 0 36.7 472
08:55:48 3 1006 203 6 0 36.6 474
08:58:47 3 1006 204 9 O 0 36.3 477
09:01:50 3 1006 206 1 NO 0 35.9 480
09:04:46 3 1006 207 5 O 0 35.4 474
09:07:47 3 1006 208 2 N 0 34.4 474
09:10:49 3 1006 209 3 NO 0 33.9 467
09:13:46 3 1006 210 2 S 0 33.6 465
09:16:46 3 1006 211 5 S 0 33.6 459
09:19:48 4 1006 213 7 S 0 32.7 459
09:22:46 4 1006 213 8 O 0 32.3 450
09:25:46 4 1006 214 5 N 0 33.1 456
09:28:48 4 1006 215 8 SW 0 32.4 454
09:31:46 4 1006 216 2 S 0 31.9 441
09:34:47 4 1006 216 9 SO 0 31.6 439
09:37:47 4 1006 216 3 S 0 31.2 436
09:40:50 5 1006 216 5 SO 0 31.1 430
09:43:48 5 1006 216 7 S 0 30.7 428
09:46:48 5 1006 216 14 SO 0 30.2 433
09:49:47 5 1006 216 5 SO 0 29.1 442
09:52:46 5 1006 215 4 O 0 30.1 445
09:55:46 6 1007 215 9 S 0 29.7 448
09:58:46 6 1006 214 6 NO 0 29.4 439
10:01:48 6 1006 213 2 O 0 29.5 433
10:04:50 6 1006 212 4 NO 0 28.9 422
10:07:49 6 1006 210 6 S 0 28.8 421
10:10:49 6 1006 207 4 O 0 28.7 421
10:13:47 6 1006 205 5 S 0 28.6 421
10:16:47 6 1006 204 1 SO 0 28.9 423
10:19:47 6 1006 203 7 S 0 28.6 430
10:22:46 6 1006 202 3 O 0 28.6 427
10:25:49 6 1006 202 2 N 0 29.2 416
10:28:47 6 1006 202 2 SO 0 29 413
10:31:49 6 1006 202 5 NW 0 29.7 406
10:34:46 6 1006 202 4 S 0 29.7 410
10:37:48 6 1006 203 7 NO 0 29.7 416
10:40:49 6 1006 202 9 SO 0 29.9 409
10:43:48 6 1006 204 7 W 0 30.1 405
10:46:52 6 1006 203 10 SO 0 29.6 407
10:49:47 6 1006 204 2 NW 0 29.5 404
10:52:48 6 1006 205 14 SO 0 30.1 407
10:55:48 7 1006 207 6 SO 0 30 407
10:58:46 7 1006 207 5 S 0 29.9 405
11:01:49 7 1006 207 12 S 0 30.7 404
11:04:49 7 1006 207 6 SO 0 30.8 407
11:07:48 7 1006 207 4 NO 0 30.6 407
11:10:50 7 1006 207 14 SW 0 29.8 407
11:13:48 7 1006 207 4 SW 0 30.2 407
11:16:46 7 1006 207 13 SO 0 30.5 404
11:19:48 8 1006 207 8 0 29.9 407
11:22:45 8 1006 207 5 O 0 29.8 407
11:25:48 8 1006 207 6 SO 0 30.4 407
11:28:48 8 1006 207 9 SO 0 29.8 407
11:31:48 8 1006 207 10 SO 0 29.5 439
11:34:48 9 1006 208 6 O 0 29.2 430
11:37:49 9 1006 208 2 N 0 28.3 424
11:40:49 9 1006 208 4 NO 0 28.6 430
11:43:47 9 1006 209 5 N 0 28.8 433
11:46:48 10 1006 209 23 S 0 26.7 430
11:49:49 11 1006 209 11 SO 0 25.3 427
11:52:50 11 1006 210 8 SO 0 24.7 422
11:55:46 11 1006 210 5 N 0 24.1 418
11:58:47 11 1006 210 5 W 0 24.7 412
12:01:49 11 1006 211 2 S 0 24 410
12:04:47 11 1006 211 7 S 0 24.5 419
12:07:49 12 1006 211 9 NW 0 24.1 421
12:10:50 12 1006 212 8 NO 0 23.6 418
12:13:48 12 1006 212 9 NW 0 23.3 415
12:16:47 12 1006 212 4 O 0 23 415
12:19:50 12 1006 213 2 SO 0 23.7 416
12:22:48 13 1006 214 8 S 0 23.4 416
12:25:47 13 1006 214 7 W 0 22.9 415
12:28:50 13 1006 214 8 SW 0 21.7 410
12:31:49 13 1006 214 6 SO 0 22.2 404
12:34:50 13 1006 215 10 NO 0 23 404
12:37:50 13 1006 215 6 S 0 22 405
12:40:49 13 1006 216 2 S 0 22.1 406
12:43:58 14 1006 216 10 O 0 22.2 404
12:46:48 14 1006 218 14 SO 0 21.4 407
12:49:47 14 1006 220 3 SO 0 21.6 404
12:52:47 14 1006 222 11 O 0 21.4 404
12:55:48 15 1006 224 13 SO 0 20.6 406
12:58:50 15 1006 225 0 W 0 20.6 407
13:01:48 15 1006 226 5 O 0 20.3 408
13:04:56 15 1006 227 3 0 20 408
13:07:47 16 1006 227 8 SO 0 19.5 406
13:10:50 15 1006 228 3 SO 0 19.4 407
13:13:50 15 1006 228 8 S 0 20.5 404
13:16:47 15 1006 228 6 S 0 20.2 404
13:19:49 14 1006 228 5 SO 0 19 404
13:22:49 13 1006 229 3 W 0 19.6 404
13:25:47 13 1006 229 9 0 20.4 404
13:28:49 13 1006 229 5 0 20.9 407
13:31:50 13 1006 229 8 SO 0 20.7 404
13:34:48 13 1005 229 7 O 0 21.4 407
13:37:47 14 1006 230 3 S 0 21.7 407
13:40:49 14 1006 230 6 W 0 21.8 407
13:43:49 14 1005 232 3 SO 0 20.9 404
13:46:48 14 1006 234 5 NO 0 21.2 404
13:49:49 14 1006 235 19 SW 0 21.4 404
13:52:47 14 1006 235 9 S 0 19.8 407
13:55:48 14 1006 238 9 NO 0 20.1 407
13:58:47 14 1006 242 0 N 0 19.9 407
14:01:49 14 1006 243 4 NW 0 20.8 404
14:04:48 14 1006 243 3 W 0 20.4 404
14:07:48 14 1006 243 2 O 0 20.2 408
14:10:48 14 1006 243 8 S 0 20 404
14:13:49 14 1006 244 8 S 0 20.2 407
14:16:48 14 1006 244 8 NW 0 20.1 407
14:19:50 14 1005 244 4 SO 0 20.6 404
14:22:49 14 1006 245 13 SO 0 20 407
14:25:48 14 1005 245 7 SO 0 20.5 404
14:28:46 14 1005 245 5 N 0 20.6 404
14:31:47 14 1006 245 2 N 0 20.8 403
14:34:48 14 1006 245 7 SO 0 20.5 407
14:37:48 14 1006 245 11 SO 0 21 404
14:40:49 14 1005 245 9 SO 0 20.8 406
14:43:49 14 1005 246 3 NO 0 20.2 406
14:46:48 14 1005 246 4 O 0 19.9 404
14:49:45 14 1005 246 6 O 0 19.7 401
14:52:46 14 1004 246 7 O 0 20.4 406
14:55:49 14 1005 246 10 SW 0 21 407
14:58:48 14 1006 246 5 NO 0 20.8 407
15:01:47 14 1006 246 7 O 0 19.8 403
15:04:50 14 1005 246 6 NO 0 19.9 404
15:07:49 14 1005 246 2 SO 0 20.6 403
15:10:48 14 1006 246 9 SW 0 19.9 407
15:13:46 14 1005 246 4 O 0 19.2 408
15:16:47 14 1005 246 3 W 0 19.7 407
15:19:47 14 1006 246 3 SO 0 20.6 407
15:22:49 14 1005 246 6 NO 0 20 404
15:25:49 13 1005 246 4 NW 0 20.2 407
15:28:47 13 1005 246 6 S 0 19.8 406
15:31:48 13 1005 246 3 N 0 19.3 409
15:34:47 13 1005 244 4 O 0 20.1 404
15:37:47 13 1005 244 6 S 0 21 407
15:40:47 13 1006 246 10 N 0 20.9 404
15:43:47 13 1006 244 4 N 0 21.1 404
15:46:48 13 1005 244 5 O 0 21.3 404
15:49:49 13 1005 237 6 O 0 21.1 404
15:52:50 12 1005 242 6 SW 0 21.1 407
15:55:48 12 1004 235 4 S 0 21.1 404
15:58:47 12 1005 232 5 0 21.7 404
16:01:48 12 1005 237 8 SO 0 21.3 407
16:04:51 12 1005 236 5 NO 0 20.5 407
16:07:49 12 1005 237 6 SO 0 20.6 404
16:10:48 12 1005 230 6 N 0 20.8 407
16:13:48 12 1004 239 2 S 0 20.7 404
16:16:47 12 1005 234 4 N 0 20.9 405
16:19:47 12 1005 228 5 O 0 21.1 407
16:22:50 12 1005 223 5 S 0 20.8 407
16:25:50 12 1004 222 3 NW 0 20.8 407
16:28:50 12 1005 239 7 SO 0 20.9 407
16:31:47 12 1004 232 2 N 0 20.5 404
16:34:49 12 1004 232 6 S 0 20.6 406
16:37:48 12 1005 230 6 SO 0 20.7 407
16:40:49 12 1005 230 8 SO 0 20.9 407
16:43:49 12 1004 231 11 O 0 20.9 407
16:46:49 12 1004 222 12 NO 0 20.7 404
16:49:47 11 1005 227 5 O 0 21.5 407
16:52:48 11 1005 229 8 SW 0 21.6 407
16:55:49 11 1005 229 2 S 0 21.8 404
16:58:50 11 1005 224 10 SO 0 21.6 407
17:01:47 11 1005 220 8 S 0 21.6 407
17:04:49 10 1005 226 7 S 0 21.8 407
17:07:50 10 1005 225 3 N 0 22 404
17:10:49 10 1005 215 1 NW 0 22.4 404
17:13:47 10 1005 210 6 N 0 22.6 404
17:16:49 10 1005 207 9 SO 0 23.2 407
17:19:49 10 1005 214 6 SO 0 23.2 407
17:22:47 10 1005 219 2 SW 0 23 406
17:25:46 9 1005 214 2 O 0 23.3 407
17:28:49 9 1005 193 8 NO 0 23.5 406
17:31:48 9 1005 191 3 O 0 23.6 404
17:34:47 9 1005 187 2 N 0 24 407
17:37:46 9 1005 182 2 O 0 24.3 408
17:40:48 9 1005 178 3 NO 0 24.2 407
17:43:48 8 1005 174 4 SO 0 24.2 406
17:46:45 8 1005 170 4 O 0 24.2 407
17:49:48 8 1005 165 0 NO 0 24.4 407
17:52:46 8 1005 160 0 NO 0 25.1 406
17:55:47 8 1005 155 1 NO 0 25.9 408
17:58:47 8 1005 150 4 NW 0 26.4 407
18:01:46 7 1006 144 4 O 0 27 410
18:04:47 7 1005 136 7 SW 0 27.1 405
18:07:48 7 1006 129 5 SO 0 27.6 407
18:10:47 7 1006 119 2 SO 0 27.7 405
18:13:47 7 1006 109 3 N 0 28 407
18:16:48 7 1006 97 1 S 0 28.2 408
18:19:49 8 1005 85 3 NO 0 35.2 404
18:22:46 7 1005 71 3 S 0 28.9 404
18:25:46 7 1005 57 1 NO 0 29.3 404
18:28:48 6 1005 42 1 NO 0 29.8 390
18:31:46 6 1005 30 2 0 30.4 408
18:34:50 6 1006 20 3 NO 0 30.9 407
18:37:44 6 1005 12 1 O 0 31.5 406
18:40:47 6 1005 7 2 NO 0 31.6 404
18:43:44 6 1005 4 0 O 0 31.2 407
18:46:45 6 1005 0 0 N 0 31.8 406
18:49:48 6 1006 0 2 SW 0 32.2 404
18:52:47 6 1006 0 0 O 0 32.3 404
18:55:47 5 1006 0 0 NW 0 32.7 407
18:58:47 5 1005 0 0 NO 0 32.6 406
19:01:45 5 1006 0 0 N 0 32.6 407
19:04:46 5 1006 0 0 SO 0 33 407
19:07:47 5 1005 0 0 NO 0 33.2 407
19:10:46 5 1006 0 0 NO 0 33.7 407
19:13:45 5 1006 0 0 N 0 33.7 407
19:16:46 4 1005 0 0 NO 0 34 404
19:19:48 4 1006 0 0 NO 0 34.4 404
19:22:45 4 1006 0 0 O 0 34.5 406
19:25:46 4 1005 0 0 NW 0 35 404
19:28:45 4 1006 0 0 O 0 35.5 406
19:31:47 4 1005 0 0 NO 0 36 403
19:34:47 3 1005 0 0 O 0 36.3 407
19:37:46 3 1005 0 0 O 0 36.3 405
19:40:45 3 1005 0 0 N 0 36.3 404
19:43:44 3 1005 0 0 N 0 36.5 404
19:46:46 3 1006 0 0 SW 0 36.9 407
19:49:47 3 1006 0 0 SW 0 37.1 409
19:52:45 3 1005 0 0 S 0 36.8 413
19:55:45 3 1006 0 0 S 0 36.7 412
19:58:46 3 1005 0 0 N 0 36.9 419
20:01:46 3 1006 0 0 NO 0 37.5 424
20:04:48 3 1006 0 1 N 0 38 430
20:07:46 2 1005 0 0 NO 0 38.5 436
20:10:48 2 1005 0 0 NO 0 38.6 436
20:13:47 2 1005 0 0 SO 0 39.1 439
20:16:49 2 1006 0 0 SO 0 38.8 447
20:19:48 2 1006 0 0 SO 0 39.2 451
20:22:47 2 1006 0 0 SO 0 39.5 454
20:25:47 2 1006 0 0 SO 0 39.3 456
20:28:45 2 1006 0 0 N 0 39.4 466
20:31:47 2 1006 0 0 SO 0 39.9 480
20:34:47 2 1005 0 0 SO 0 40.4 497
20:37:48 2 1005 0 0 SO 0 40.9 506
20:40:47 1 1005 0 0 SO 0 41 506
20:43:47 1 1006 0 0 SO 0 41.2 510
20:46:46 1 1006 0 0 NO 0 41.4 518
20:49:47 1 1005 0 0 NO 0 42 527
20:52:44 1 1006 0 0 S 0 42 527
20:55:46 1 1006 0 0 S 0 42.4 533
20:58:48 1 1005 0 0 S 0 42.9 538
21:01:47 1 1006 0 0 S 0 43.3 541
21:04:46 1 1006 0 0 S 0 43.7 539
21:07:45 1 1006 0 0 S 0 43.9 544
21:10:47 1 1006 0 0 SO 0 45 556
21:13:45 0 1006 0 0 S 0 45.2 559
21:16:45 1 1006 0 0 S 0 45.4 555
21:19:46 0 1006 0 0 S 0 45.3 556
21:22:47 0 1005 0 0 S 0 45.9 557
21:25:46 0 1006 0 0 S 0 46.4 556
21:28:46 0 1006 0 0 NW 0 45.9 555
21:31:49 0 1005 0 0 NO 0 45.9 560
21:34:45 0 1005 0 0 N 0 45.8 559
21:37:44 0 1005 0 0 N 0 45.5 559
21:40:45 0 1005 0 0 N 0 45.2 564
21:43:46 0 1006 0 0 NO 0 45.3 574
21:46:47 0 1005 0 0 N 0 45.7 579
21:49:45 0 1005 0 0 N 0 45.7 579
21:52:45 0 1005 0 0 O 0 45.3 583
21:55:44 0 1005 0 0 N 0 45.1 580
21:58:46 0 1005 0 0 N 0 45.1 587
22:01:47 1 1005 0 0 N 0 44.9 586
22:04:47 1 1005 0 0 N 0 44.6 592
22:07:47 1 1005 0 0 NW 0 44.5 597
22:10:49 1 1005 0 0 O 0 44.5 598
22:13:47 1 1005 0 0 O 0 44.6 597
22:16:46 1 1005 0 0 NO 0 44.8 600
22:19:46 1 1006 0 0 N 0 44.6 600
22:22:46 1 1005 0 0 N 0 45.2 600
22:25:48 1 1005 0 2 NO 0 45.5 600
22:28:47 1 1005 0 3 SO 0 45.6 609
22:31:46 1 1005 0 0 NO 0 45.3 606
22:34:47 1 1005 0 1 SO 0 44.7 618
22:37:46 1 1005 0 1 S 0 44.2 617
22:40:46 1 1005 0 0 SO 0 44.2 618
22:43:47 1 1005 0 0 NW 0 44.8 614
22:46:46 1 1005 0 0 NO 0 45.2 618
22:49:48 0 1006 0 0 NO 0 45.3 615
22:52:45 1 1004 0 0 N 0 45.7 618
22:55:45 1 1005 0 0 O 0 45.9 626
22:58:50 1 1006 0 0 NO 0 45.6 635
23:01:47 1 1006 0 0 N 0 45.5 643
23:04:47 0 1005 0 0 N 0 45.5 644
23:07:48 0 1005 0 0 NO 0 45.6 641
23:10:45 0 1005 0 0 NO 0 45.7 633
23:13:47 0 1006 0 0 O 0 45.8 635
23:16:47 0 1005 0 0 NO 0 46.1 640
23:19:47 0 1005 0 1 N 0 46.7 642
23:22:46 0 1005 0 1 NO 0 47.1 642
23:25:49 0 1005 0 5 NW 0 47.3 636
23:28:46 0 1005 0 3 NW 0 47.3 621
23:31:47 1 1005 0 1 NO 0 47.3 594
23:34:48 1 1005 0 1 N 0 46.5 589
23:37:47 1 1004 0 0 NO 0 46.1 602
23:40:47 1 1005 0 1 NW 0 45.9 609
23:43:50 1 1005 0 2 SO 0 45.6 620
23:46:46 1 1005 0 1 N 0 45.7 627
23:49:47 1 1004 0 0 NW 0 45.9 630
23:52:45 1 1005 0 0 N 0 46.1 624
23:55:44 1 1005 0 1 W 0 46.4 618
23:58:48 1 1005 0 1 NO 0 46.2 622

Letzte Änderung : 22-Jul-2022
Copyright Jens Köhler, Wolfsburg, Obere Dorfstraße 10d